Location: Atripalda
(40.9167°N, 14.8333°E)
Time: 07:18:27
(UTC+00:00)

Daily predictions for brighter satellites

Satellite Brightness Start Highest point End
(mag) Time Altitude Azimuth Time Altitude Azimuth Time Altitude Azimuth
Cosmos 1500 Rocket 3.8 18:31:19 10° SSE 18:35:26 46° E 18:39:35 10° NNE
CZ-4 R/B 4.2 18:33:06 10° SW 18:35:46 18° W 18:38:28 10° NW
Ariane Rocket 3.0 18:31:41 10° SSE 18:36:43 74° ENE 18:41:47 10° N
ARGOS 3.4 18:35:30 10° S 18:40:54 78° WSW 18:46:18 10° NNW
Cosmos 1992 Rocket 4.2 18:35:51 10° NNW 18:41:02 59° ENE 18:46:11 10° SSE
Resurs 1-3 4.5 18:37:14 10° SE 18:41:08 32° ENE 18:45:02 10° N
CZ-2C R/B 2.6 18:40:00 10° NNE 18:45:07 62° E 18:50:17 10° S
Meteor 2-3 Rocket 4.3 18:40:04 10° SSW 18:45:48 68° W 18:51:37 10° N
SL-8 R/B 4.3 18:41:06 10° WNW 18:45:50 52° NNE 18:50:33 10° E
USA 186 1.3 18:44:20 10° S 18:46:39 63° W 18:48:53 10° NNW
Cosmos 1328 Rocket 4.5 18:43:16 10° NNW 18:47:34 53° W 18:51:52 10° S
FREGAT/IRIS 2.3 18:48:02 10° S 18:50:40 80° W 18:53:19 10° NNW
Cosmos 2218 Rocket 4.1 18:45:53 10° S 18:52:05 86° W 18:58:16 10° N
Cosmos 405 4.4 18:52:01 10° NNW 18:55:16 38° W 18:58:30 10° SSW
H-2A R/B 3.3 18:50:39 10° S 18:55:33 42° W 19:00:23 10° NNW
Cosmos 1805 Rocket 4.0 18:54:26 10° SSE 18:58:33 40° E 19:02:44 10° NNE
Cosmos 1782 2.9 18:54:51 10° N 18:58:53 84° W 19:02:54 10° S
MOS 1 4.4 18:53:54 10° SSE 18:59:32 85° WSW 19:05:14 10° NNW
Cosmos 1980 Rocket 4.0 18:57:43 10° N 19:01:22 17° NE 19:05:00 10° E
DMSP B5D2-2 4.1 19:01:50 10° NNE 19:07:05 88° WNW 19:12:20 10° SSW
Cosmos 1140 Rocket 4.3 19:03:34 10° SSE 19:08:02 29° E 19:12:31 10° NE
SL-4 R/B 2.0 19:04:51 10° SW 19:08:49 50° SE 19:12:29 10° ENE
ATLAS 5 CENTAUR R/B 2.6 19:04:26 10° NNW 19:10:13 64° NE 19:15:45 15° SE
MetOp-A 4.3 19:08:06 10° S 19:13:27 80° WSW 19:18:50 10° NNW
Cosmos 1833 Rocket 2.8 19:09:40 10° S 19:15:06 53° ESE 19:20:33 10° NNE
Cosmos 1697 Rocket 3.4 19:12:29 10° N 19:17:42 38° ENE 19:21:19 18° ESE
Cosmos 2228 Rocket 3.1 19:14:48 10° N 19:19:14 81° W 19:23:37 10° S
SPOT 3 Rocket 3.5 19:14:26 10° SSE 19:19:39 81° ENE 19:24:53 10° NNW
Cosmos 1633 Rocket 4.1 19:18:03 18° SE 19:20:14 27° E 19:23:59 10° NNE
Cosmos 389 Rocket 2.4 19:18:49 10° N 19:22:13 60° E 19:24:21 21° SSE
Cosmos 1867 4.3 19:17:45 10° S 19:22:24 30° ESE 19:27:05 10° NE
Cosmos 1812 2.8 19:20:21 10° N 19:24:09 56° E 19:26:34 21° SSE
Cosmos 1727 Rocket 4.2 19:18:04 10° N 19:24:27 80° W 19:30:47 10° S
Cosmos 1656 3.6 19:23:52 10° NNW 19:29:23 84° ENE 19:33:31 18° SSE
IRIDIUM 104 4.3 19:24:45 10° S 19:29:57 90° SW 19:35:12 10° N
Resurs 01 Rocket 1.6 19:27:32 17° SSE 19:30:50 74° ENE 19:35:15 10° N
Cosmos 1707 Rocket 3.8 19:29:27 10° N 19:33:39 47° E 19:35:43 26° SE
Cosmos 220 Rocket 3.9 19:29:39 10° NNW 19:33:51 65° ENE 19:36:05 26° SE
Cosmos 972 Rocket 4.3 19:30:47 10° NNW 19:35:41 61° WSW 19:40:04 12° S
Cosmos 1441 Rocket 3.2 19:32:56 10° SSW 19:36:45 79° W 19:40:32 10° N
FALCON 9 DEB 3.1 19:33:31 10° SW 19:36:57 60° SE 19:40:24 10° ENE
Cosmos 1934 Rocket 4.3 19:31:55 14° SSE 19:37:15 50° E 19:43:22 10° NNE
Aureole 1 Rocket 4.5 19:33:43 10° S 19:39:49 49° E 19:47:22 10° NNE
Cosmos 614 Rocket 4.1 19:35:24 10° SSW 19:40:32 77° WNW 19:45:46 10° NNE
NOSS 3-2 (A) 3.9 19:36:58 12° S 19:41:28 33° ESE 19:46:53 10° NE
IGS 5A 4.0 19:41:07 30° ESE 19:42:32 41° ENE 19:46:26 10° N
SWAS 4.4 19:43:47 10° SSW 19:48:04 85° ESE 19:52:26 10° NNE
USA 267 3.5 19:41:54 10° NE 19:48:25 71° NW 19:54:55 10° WSW
Cosmos 1821 Rocket 4.1 19:44:21 10° SSW 19:50:28 77° W 19:56:42 10° N
GP-B 3.5 19:47:49 10° NNE 19:52:05 45° E 19:53:13 36° SE
COSMOS 2406 4.0 19:47:30 10° SW 19:53:07 53° WNW 19:58:44 10° NNE
Shenzhou-11 Module 2.4 19:53:40 10° WNW 19:55:30 45° NW 19:55:30 45° NW
ERS-1 Rocket 3.8 19:56:08 29° E 19:57:33 34° ENE 20:02:04 10° N
Cosmos 921 Rocket 4.5 19:54:23 10° NNE 19:57:39 21° ENE 19:58:03 21° ENE
Intercosmos 25 3.8 19:55:50 10° NNW 19:59:55 54° W 20:01:26 28° SSW
SL-16 R/B 4.2 19:56:47 10° NNE 20:00:04 15° NE 20:02:26 12° ENE
Cosmos 1862 Rocket 4.0 19:55:54 10° N 20:00:12 44° ENE 20:01:01 40° ESE
Lacrosse 5 4.1 19:59:05 10° NNW 20:02:34 18° NNE 20:06:03 10° ENE
Sich 1 3.9 19:58:35 10° SSW 20:02:54 51° W 20:07:15 10° N
Cosmos 2369 3.7 19:59:52 10° NNW 20:05:38 82° ENE 20:08:04 36° SSE
Cosmos 2082 Rocket 2.1 20:02:25 10° SSW 20:08:07 85° ESE 20:13:50 10° NNE
USA 245 4.5 20:04:33 28° SSE 20:08:08 85° ENE 20:14:35 10° NNW
Cosmos 1954 Rocket 3.9 20:06:50 26° S 20:09:50 66° ESE 20:15:07 10° NNE
Cosmos 1818 3.6 20:04:51 10° NW 20:10:19 78° WSW 20:12:24 39° SSE
Spot 2 Rocket 3.4 20:11:25 38° SSE 20:13:27 89° E 20:18:35 10° NNW
Cosmos 1535 Rocket 4.4 20:08:44 17° S 20:13:34 89° W 20:19:43 10° N
Cosmos 2278 3.8 20:09:14 10° NNW 20:14:55 65° ENE 20:16:44 42° SE
Cosmos 2123 Rocket 3.9 20:08:46 10° N 20:15:01 86° E 20:18:06 32° S
Meteor 2-20 4.5 20:10:37 10° N 20:16:47 80° W 20:20:08 29° S
CARTOSAT-1 3.7 20:20:05 52° E 20:20:22 53° ENE 20:24:35 10° N
Cosmos 1184 Rocket 3.1 20:21:02 61° N 20:21:02 61° N 20:23:49 10° N
Terra 2.6 20:21:08 34° E 20:21:30 35° ENE 20:25:49 10° N
USA 234 3.4 20:18:45 32° ESE 20:21:54 65° NE 20:28:22 10° NW
Meteor 1-4 Rocket 2.6 20:19:02 10° NNW 20:22:26 69° W 20:22:26 69° W
Cosmos 2322 Rocket 4.0 20:18:46 10° N 20:22:41 19° NE 20:24:25 16° ENE
Cosmos 1605 Rocket 3.8 20:21:08 35° S 20:23:53 74° E 20:29:59 10° N
Cosmos 1933 Rocket 3.8 20:24:16 51° E 20:24:16 51° E 20:28:18 10° NNE
Meteor 1-20 Rocket 4.2 20:23:25 38° S 20:25:45 76° E 20:31:37 10° NNE
Cosmos 1238 Rocket 4.0 20:28:02 25° NNE 20:28:02 25° NNE 20:29:25 10° NNE
SL-8 R/B 4.2 20:23:45 10° WNW 20:28:22 45° SW 20:28:49 43° SSW
Okean 1 4.2 20:28:17 10° N 20:31:27 39° NE 20:31:27 39° NE
SPOT 5 2.6 20:35:54 66° ENE 20:35:54 66° ENE 20:40:09 10° N
Cosmos 2360 Rocket 4.3 20:33:53 10° NNE 20:36:37 13° NE 20:38:35 12° ENE
Cosmos 1437 Rocket 4.3 20:33:16 10° NNE 20:35:27 24° NE 20:35:27 24° NE
USA 238 DEB 3.5 20:30:28 10° SSW 20:37:03 84° ESE 20:43:55 10° NE
USA 238 3.5 20:30:35 10° SSW 20:37:09 83° ESE 20:44:01 10° NE
BREEZE-M DEB (TANK) 4.4 20:38:17 10° W 20:39:00 11° WSW 20:39:00 11° WSW
SPOT 1/Viking Rocket 3.8 20:39:53 44° SSW 20:41:21 62° WSW 20:46:33 10° NNW
Meteor 1-19 Rocket 4.3 20:36:31 10° N 20:41:50 54° ENE 20:42:13 52° E
Cosmos 1980 Rocket 2.1 20:40:23 10° NNW 20:46:04 80° WSW 20:47:05 61° S
Meteor 1-14 Rocket 4.2 20:46:52 61° SE 20:47:31 66° E 20:53:23 10° NNE
Cosmos 1703 Rocket 4.2 20:43:38 10° N 20:47:05 44° NE 20:47:05 44° NE
Cosmos 2242 Rocket 3.7 20:43:29 10° N 20:47:29 65° NE 20:47:29 65° NE
Cosmos 405 Rocket 3.6 20:49:22 43° N 20:49:22 43° N 20:51:59 10° N
SL-4 R/B 3.7 20:45:03 10° W 20:48:31 30° NNW 20:51:35 11° NE
Cosmos 1763 Rocket 4.0 20:45:53 10° N 20:50:59 44° ENE 20:51:08 44° ENE
Genesis I 3.9 20:47:42 10° NNW 20:50:44 52° NNW 20:50:44 52° NNW
ATLAS 5 CENTAUR R/B 4.1 20:49:50 10° WNW 20:54:42 25° WSW 20:57:18 20° SW
Cosmos 1459 Rocket 4.2 20:58:06 50° E 20:58:14 50° E 21:04:19 10° NNE
Cosmos 1697 Rocket 4.0 20:56:41 10° NW 21:01:30 30° WSW 21:03:04 26° SW
Cosmos 1153 Rocket 4.4 21:03:25 57° SSW 21:04:46 83° W 21:10:57 10° N
CENTAUR R/B 2.3 21:04:45 68° S 21:05:31 79° ESE 21:12:21 10° NE
Meteor 1-18 Rocket 4.1 21:03:53 10° NNW 21:09:28 78° W 21:09:50 74° SW
Okean 1-7 3.7 21:05:14 10° N 21:08:30 50° N 21:08:30 50° N
NOSS 3-3 (A) 4.5 21:04:36 10° NNW 21:12:16 83° NE 21:14:19 56° SE
NOSS 3-3 (C) 4.5 21:04:42 10° NNW 21:12:22 83° NE 21:14:26 56° SE
Cosmos 1802 Rocket 4.2 21:13:52 55° E 21:13:52 55° E 21:19:59 10° NNE
Cosmos 1850 Rocket 4.0 21:14:18 82° NNW 21:14:18 82° NNW 21:19:27 10° NNE
Meteor 2-4 Rocket 3.7 21:13:33 10° N 21:18:53 68° NE 21:18:53 68° NE
ATLAS 5 CENTAUR R/B 3.8 21:20:27 10° N 21:23:25 31° NE 21:23:25 31° NE
NOSS 3-2 (A) 4.5 21:26:42 10° WSW 21:32:05 42° NW 21:38:12 10° NNE
ERS-1 Rocket 4.4 21:36:09 27° W 21:36:21 27° W 21:40:36 10° NW
NOSS 3-2 (C) 3.8 21:35:51 40° WSW 21:37:45 59° NW 21:44:06 10° NNE
Cosmos 841 Rocket 4.0 21:37:48 10° NNW 21:42:00 54° NNE 21:42:00 54° NNE
Cosmos 540 Rocket 4.1 21:39:18 10° NNW 21:43:22 52° NNE 21:43:22 52° NNE
SL-16 R/B 2.3 21:39:17 10° NNW 21:44:17 70° NNW 21:44:17 70° NNW
Lacrosse 5 2.6 21:41:27 10° NW 21:45:31 50° N 21:45:31 50° N
Tsikada Rocket 4.3 21:49:08 10° N 21:54:55 59° ENE 21:54:55 59° ENE
Cosmos 2219 Rocket 4.0 21:51:47 10° N 21:55:54 20° NE 21:56:37 20° ENE
Terra 3.7 22:00:02 23° W 22:00:02 23° W 22:03:09 10° NW
USA 234 4.2 22:06:06 34° WSW 22:06:06 34° WSW 22:11:04 10° WNW
Cosmos 2322 Rocket 2.7 22:01:38 10° NNW 22:06:13 57° NW 22:06:13 57° NW
Meteor 1-11 Rocket 4.1 22:09:09 60° NNW 22:09:09 60° NNW 22:13:55 10° N
ATLAS 3B R/B 2.6 22:21:12 74° N 22:21:12 74° N 22:27:17 10° NNE
Cosmos 2360 Rocket 2.7 22:15:53 10° NNW 22:20:20 55° N 22:20:20 55° N
COSMOS 2428 4.2 22:17:38 10° N 22:22:31 28° NE 22:22:37 28° ENE
ALOS 2 4.4 22:27:44 29° N 22:27:44 29° N 22:29:55 10° N
Cosmos 1725 Rocket 4.3 22:27:19 59° WNW 22:27:19 59° WNW 22:33:14 10° N
Cosmos 2333 Rocket 3.1 22:36:33 10° NNW 22:41:19 44° NE 22:41:19 44° NE
Lacrosse 4 Rocket 3.9 22:45:23 19° NNE 22:45:23 19° NNE 22:46:37 10° NNE
Cosmos 2237 Rocket 4.3 22:42:16 10° N 22:46:00 18° NE 22:47:32 16° ENE
CENTAUR R/B 4.5 22:51:58 10° W 22:57:04 25° NW 23:02:52 10° NNE
Cosmos 1464 Rocket 4.3 23:15:36 63° NNE 23:15:36 63° NNE 23:20:46 10° N
Cosmos 2227 Rocket 4.0 23:22:42 22° ENE 23:22:42 22° ENE 23:25:30 10° NE
Nadezhda 4 Rocket 4.2 23:32:32 10° N 23:38:04 66° NNE 23:38:04 66° NNE
Cosmos 2219 Rocket 3.2 23:34:44 10° NNW 23:38:19 39° NW 23:38:19 39° NW
Cosmos 2034 Rocket 4.2 23:43:53 68° N 23:43:53 68° N 23:49:21 10° N
SL-16 R/B 3.8 23:46:15 29° E 23:47:55 33° ENE 23:53:24 10° N
Cosmos 1092 Rocket 4.3 23:46:54 10° N 23:52:45 59° ENE 23:52:45 59° ENE
